Location: Maiden
(35.5760°N, 81.2120°W)
Time: 03:21:13
(UTC-04:00)

Cosmos 1933 - Pass Details

Date: 02 August 2020
Orbit: 548 x 563 km, 82.5° (Epoch: 11 August)

Event Time Altitude Azimuth Distance (km) Brightness Sun altitude
Rises 21:31:03 0° 353° (N) 2,751 7.5 -12.3°
Reaches altitude 10° 21:33:13 10° 353° (N) 1,853 6.6 -12.7°
Maximum altitude 21:37:19 90° 130° (SE) 566 3.3 -13.4°
Enters shadow 21:41:16 11° 174° (S) 1,799 5.6 -14.1°
